Terminal Aerodrome Forecast
Issued by NWS Boston, MA

Home | Current Version | Previous Version | Text Only | Print | Product List | Glossary On
Versions: 1 2 3 4 5 6 7 8 9 10 11 12 13 14 15 16 17 18 19 20 21 22 23 24 25 26 27 28 29 30 31 32 33 34 35 36 37 38 39 40 41 42 43 44 45 46 47 48 49 50
834
FTUS41 KBOX 102340 AAB
TAFBOS
TAF AMD
KBOS 102340Z 1100/1206 24005KT P6SM OVC050
     FM110500 27009KT P6SM BKN090
     FM111500 28013KT 5SM -SN BKN035
     FM111900 28015G24KT P6SM BKN040
     FM112300 29016G29KT P6SM SCT070=

USA.gov is the U.S. government's official web portal to all federal, state and local government web resources and services.